TAM1909 SBSP-SBVT

Flight info

Callsign TAM1909
Flight time 1h 10m
Altitude 37000
Route UREMI UZ42 CXI DCT SEGLI DCT TODET
Aircraft A20N/M-SDE2E3FGHIRWXY/LB1

Departure

Time 2026-04-23 00:35
Airport Congonhas–Deputado Freitas Nobre Airport (SBSP)

Arrival

Time 2026-04-23 01:46
Airport Eurico de Aguiar Salles International Airport (SBVT)
Time Latitude Longitude Altitude Speed Heading
2026-04-22 23:52 -23.62511 -46.65966 2600 ft 0 kts 237°
2026-04-23 00:28 -23.62508 -46.65962 2600 ft 2 kts 237°
2026-04-23 00:28 -23.62501 -46.65945 2600 ft 2 kts 252°
2026-04-23 00:29 -23.62498 -46.65928 2600 ft 2 kts 290°
2026-04-23 00:29 -23.62508 -46.65913 2600 ft 2 kts 323°
2026-04-23 00:29 -23.62514 -46.65908 2600 ft 0 kts 327°
2026-04-23 00:32 -23.62514 -46.65909 2600 ft 0 kts 327°
2026-04-23 00:32 -23.62497 -46.65915 2600 ft 5 kts 344°
2026-04-23 00:32 -23.62443 -46.65930 2600 ft 10 kts 346°
2026-04-23 00:32 -23.62371 -46.65959 2600 ft 10 kts 330°
2026-04-23 00:33 -23.62304 -46.66003 2600 ft 13 kts 327°
2026-04-23 00:33 -23.62242 -46.66045 2599 ft 8 kts 330°
2026-04-23 00:33 -23.62181 -46.66080 2599 ft 12 kts 328°
2026-04-23 00:33 -23.62149 -46.66102 2589 ft 11 kts 327°
2026-04-23 00:34 -23.62058 -46.66126 2594 ft 14 kts 30°
2026-04-23 00:34 -23.62057 -46.66068 2588 ft 4 kts 152°
2026-04-23 00:34 -23.62089 -46.66049 2596 ft 6 kts 149°
2026-04-23 00:34 -23.62115 -46.66031 2597 ft 0 kts 148°
2026-04-23 00:35 -23.62165 -46.65997 2594 ft 38 kts 147°
2026-04-23 00:35 -23.62618 -46.65680 2605 ft 113 kts 147°
2026-04-23 00:35 -23.63456 -46.65108 2720 ft 162 kts 148°
2026-04-23 00:35 -23.64414 -46.64467 3535 ft 160 kts 147°
2026-04-23 00:36 -23.65334 -46.63815 4352 ft 156 kts 146°
2026-04-23 00:36 -23.66288 -46.63127 4872 ft 174 kts 146°
2026-04-23 00:36 -23.67362 -46.62355 5308 ft 195 kts 147°
2026-04-23 00:36 -23.68570 -46.61497 5691 ft 220 kts 147°
2026-04-23 00:37 -23.69873 -46.60477 6149 ft 243 kts 135°
2026-04-23 00:37 -23.70786 -46.58845 6602 ft 267 kts 107°
2026-04-23 00:37 -23.71168 -46.56788 7130 ft 283 kts 99°
2026-04-23 00:37 -23.71432 -46.54653 8020 ft 283 kts 98°
2026-04-23 00:38 -23.71700 -46.52516 8902 ft 285 kts 100°
2026-04-23 00:38 -23.71840 -46.50346 9746 ft 291 kts 85°
2026-04-23 00:38 -23.71413 -46.48173 10492 ft 298 kts 76°
2026-04-23 00:38 -23.70807 -46.45923 10776 ft 321 kts 73°
2026-04-23 00:39 -23.70063 -46.43528 11018 ft 343 kts 71°
2026-04-23 00:39 -23.69239 -46.41047 11619 ft 350 kts 71°
2026-04-23 00:39 -23.68392 -46.38542 12358 ft 354 kts 71°
2026-04-23 00:39 -23.67537 -46.36009 13083 ft 358 kts 71°
2026-04-23 00:40 -23.66674 -46.33442 13810 ft 362 kts 71°
2026-04-23 00:40 -23.65802 -46.30844 14441 ft 367 kts 71°
2026-04-23 00:40 -23.64921 -46.28211 15048 ft 372 kts 71°
2026-04-23 00:40 -23.64028 -46.25543 15661 ft 376 kts 70°
2026-04-23 00:41 -23.63124 -46.22845 16251 ft 381 kts 70°
2026-04-23 00:41 -23.62208 -46.20115 16824 ft 386 kts 70°
2026-04-23 00:41 -23.61281 -46.17351 17391 ft 390 kts 70°
2026-04-23 00:41 -23.60342 -46.14554 17973 ft 395 kts 70°
2026-04-23 00:42 -23.59391 -46.11726 18502 ft 400 kts 70°
2026-04-23 00:42 -23.58429 -46.08867 18981 ft 404 kts 70°
2026-04-23 00:42 -23.57457 -46.05980 19449 ft 408 kts 70°
2026-04-23 00:42 -23.56473 -46.03062 19928 ft 412 kts 70°
2026-04-23 00:43 -23.55478 -46.00112 20379 ft 416 kts 70°
2026-04-23 00:43 -23.54475 -45.97139 20848 ft 421 kts 70°
2026-04-23 00:43 -23.53457 -45.94129 21300 ft 425 kts 70°
2026-04-23 00:43 -23.52446 -45.91137 21744 ft 429 kts 71°
2026-04-23 00:44 -23.51410 -45.88075 22195 ft 433 kts 71°
2026-04-23 00:44 -23.50351 -45.84947 22632 ft 437 kts 71°
2026-04-23 00:44 -23.49309 -45.81870 23066 ft 441 kts 71°
2026-04-23 00:44 -23.48244 -45.78727 23491 ft 444 kts 71°
2026-04-23 00:45 -23.47167 -45.75553 23856 ft 449 kts 71°
2026-04-23 00:45 -23.46081 -45.72355 24250 ft 451 kts 71°
2026-04-23 00:45 -23.44990 -45.69145 24623 ft 453 kts 71°
2026-04-23 00:45 -23.43891 -45.65913 24982 ft 456 kts 71°
2026-04-23 00:46 -23.42787 -45.62668 25330 ft 459 kts 70°
2026-04-23 00:46 -23.41673 -45.59398 25686 ft 462 kts 70°
2026-04-23 00:46 -23.40554 -45.56113 26026 ft 464 kts 70°
2026-04-23 00:46 -23.39429 -45.52813 26370 ft 467 kts 71°
2026-04-23 00:47 -23.38493 -45.49416 26696 ft 468 kts 78°
2026-04-23 00:47 -23.37764 -45.45949 27024 ft 471 kts 78°
2026-04-23 00:47 -23.37028 -45.42466 27350 ft 474 kts 78°
2026-04-23 00:47 -23.36283 -45.38961 27669 ft 476 kts 78°
2026-04-23 00:48 -23.35532 -45.35440 27983 ft 479 kts 78°
2026-04-23 00:48 -23.34774 -45.31898 28297 ft 482 kts 78°
2026-04-23 00:48 -23.34012 -45.28342 28593 ft 485 kts 78°
2026-04-23 00:48 -23.33243 -45.24759 28884 ft 487 kts 78°
2026-04-23 00:49 -23.32471 -45.21165 29187 ft 489 kts 78°
2026-04-23 00:49 -23.31694 -45.17552 29464 ft 492 kts 78°
2026-04-23 00:49 -23.30912 -45.13922 29763 ft 494 kts 78°
2026-04-23 00:49 -23.30127 -45.10274 30033 ft 497 kts 78°
2026-04-23 00:50 -23.29335 -45.06604 30299 ft 499 kts 78°
2026-04-23 00:50 -23.28540 -45.02927 30570 ft 500 kts 78°
2026-04-23 00:50 -23.27741 -44.99232 30832 ft 502 kts 78°
2026-04-23 00:50 -23.26939 -44.95531 31113 ft 504 kts 78°
2026-04-23 00:51 -23.26133 -44.91813 31435 ft 505 kts 78°
2026-04-23 00:51 -23.25327 -44.88102 31801 ft 504 kts 78°
2026-04-23 00:51 -23.24520 -44.84391 32175 ft 504 kts 78°
2026-04-23 00:51 -23.23986 -44.81937 32409 ft 503 kts 79°
2026-04-23 00:52 -23.22910 -44.77000 32913 ft 501 kts 79°
2026-04-23 00:52 -23.22378 -44.74559 33088 ft 502 kts 79°
2026-04-23 00:52 -23.21574 -44.70874 33431 ft 501 kts 79°
2026-04-23 00:52 -23.20507 -44.65998 33886 ft 500 kts 79°
2026-04-23 00:53 -23.19704 -44.62329 34195 ft 499 kts 79°
2026-04-23 00:53 -23.18899 -44.58660 34470 ft 498 kts 79°
2026-04-23 00:53 -23.18097 -44.55008 34757 ft 497 kts 79°
2026-04-23 00:53 -23.17553 -44.52532 34943 ft 496 kts 79°
2026-04-23 00:54 -23.16751 -44.48888 35204 ft 496 kts 79°
2026-04-23 00:54 -23.15950 -44.45248 35464 ft 495 kts 79°
2026-04-23 00:54 -23.15148 -44.41608 35715 ft 495 kts 79°
2026-04-23 00:54 -23.14348 -44.37982 35974 ft 494 kts 79°
2026-04-23 00:55 -23.13545 -44.34348 36222 ft 493 kts 79°
2026-04-23 00:55 -23.12757 -44.30781 36469 ft 493 kts 79°
2026-04-23 00:55 -23.11956 -44.27165 36715 ft 492 kts 79°
2026-04-23 00:55 -23.11155 -44.23553 36943 ft 491 kts 79°
2026-04-23 00:56 -23.10353 -44.19938 37112 ft 492 kts 79°
2026-04-23 00:56 -23.08752 -44.12733 37143 ft 489 kts 79°
2026-04-23 00:57 -23.07154 -44.05563 37140 ft 489 kts 79°
2026-04-23 00:57 -23.05546 -43.98360 37136 ft 489 kts 79°
2026-04-23 00:58 -23.03938 -43.91178 37134 ft 490 kts 79°
2026-04-23 00:58 -23.02327 -43.83997 37129 ft 489 kts 79°
2026-04-23 00:59 -23.00715 -43.76824 37129 ft 489 kts 79°
2026-04-23 00:59 -22.98913 -43.69751 37126 ft 491 kts 72°
2026-04-23 01:00 -22.96873 -43.64441 37121 ft 492 kts 69°
2026-04-23 01:00 -22.95008 -43.59713 37125 ft 492 kts 69°
2026-04-23 01:01 -22.92319 -43.52876 37124 ft 492 kts 69°
2026-04-23 01:01 -22.89629 -43.46046 37120 ft 493 kts 69°
2026-04-23 01:02 -22.86931 -43.39214 37128 ft 493 kts 69°
2026-04-23 01:02 -22.84230 -43.32382 37130 ft 493 kts 69°
2026-04-23 01:03 -22.81367 -43.25624 37127 ft 494 kts 62°
2026-04-23 01:03 -22.77658 -43.19334 37125 ft 495 kts 58°
2026-04-23 01:04 -22.73869 -43.13102 37137 ft 495 kts 58°
2026-04-23 01:04 -22.68186 -43.03752 37142 ft 495 kts 58°
2026-04-23 01:05 -22.64418 -42.97564 37146 ft 495 kts 58°
2026-04-23 01:05 -22.60623 -42.91343 37150 ft 495 kts 58°
2026-04-23 01:06 -22.56829 -42.85127 37159 ft 495 kts 58°
2026-04-23 01:06 -22.53034 -42.78918 37160 ft 495 kts 58°
2026-04-23 01:07 -22.49214 -42.72677 37162 ft 494 kts 58°
2026-04-23 01:07 -22.45416 -42.66478 37164 ft 494 kts 58°
2026-04-23 01:08 -22.41620 -42.60290 37166 ft 494 kts 58°
2026-04-23 01:08 -22.37849 -42.54149 37166 ft 493 kts 58°
2026-04-23 01:09 -22.34054 -42.47976 37167 ft 493 kts 58°
2026-04-23 01:09 -22.30261 -42.41815 37164 ft 492 kts 58°
2026-04-23 01:10 -22.26182 -42.35863 37161 ft 493 kts 54°
2026-04-23 01:10 -22.22038 -42.29970 37163 ft 492 kts 54°
2026-04-23 01:11 -22.17894 -42.24080 37163 ft 493 kts 54°
2026-04-23 01:11 -22.13743 -42.18191 37162 ft 493 kts 54°
2026-04-23 01:12 -22.09587 -42.12301 37161 ft 493 kts 54°
2026-04-23 01:12 -22.05457 -42.06454 37155 ft 493 kts 54°
2026-04-23 01:13 -22.01302 -42.00579 37154 ft 493 kts 54°
2026-04-23 01:13 -21.97143 -41.94705 37152 ft 493 kts 54°
2026-04-23 01:14 -21.92983 -41.88836 37149 ft 493 kts 54°
2026-04-23 01:14 -21.88823 -41.82973 37139 ft 492 kts 54°
2026-04-23 01:15 -21.84669 -41.77125 37135 ft 492 kts 54°
2026-04-23 01:15 -21.80515 -41.71283 37132 ft 492 kts 54°
2026-04-23 01:16 -21.76356 -41.65439 37136 ft 492 kts 54°
2026-04-23 01:16 -21.72195 -41.59600 37134 ft 492 kts 54°
2026-04-23 01:17 -21.68030 -41.53763 37134 ft 492 kts 54°
2026-04-23 01:17 -21.63878 -41.47948 37129 ft 492 kts 54°
2026-04-23 01:18 -21.59711 -41.42120 37133 ft 492 kts 54°
2026-04-23 01:18 -21.55536 -41.36285 37135 ft 493 kts 54°
2026-04-23 01:19 -21.51342 -41.30455 37136 ft 493 kts 52°
2026-04-23 01:19 -21.46528 -41.25206 37137 ft 495 kts 40°
2026-04-23 01:20 -21.41192 -41.20523 36739 ft 496 kts 40°
2026-04-23 01:20 -21.38523 -41.18168 36107 ft 498 kts 40°
2026-04-23 01:20 -21.35838 -41.15797 35275 ft 502 kts 40°
2026-04-23 01:21 -21.33159 -41.13431 34353 ft 509 kts 40°
2026-04-23 01:21 -21.30410 -41.11007 33332 ft 514 kts 40°
2026-04-23 01:21 -21.27637 -41.08566 32385 ft 517 kts 40°
2026-04-23 01:21 -21.24818 -41.06087 31450 ft 518 kts 40°
2026-04-23 01:22 -21.22027 -41.03634 30602 ft 519 kts 40°
2026-04-23 01:22 -21.19230 -41.01176 29685 ft 520 kts 40°
2026-04-23 01:22 -21.16488 -40.98768 29082 ft 513 kts 40°
2026-04-23 01:22 -21.13756 -40.96370 28648 ft 502 kts 40°
2026-04-23 01:23 -21.11072 -40.94014 28047 ft 496 kts 40°
2026-04-23 01:23 -21.08414 -40.91683 27464 ft 491 kts 40°
2026-04-23 01:23 -21.05786 -40.89379 26874 ft 485 kts 39°
2026-04-23 01:23 -21.03186 -40.87098 26274 ft 481 kts 39°
2026-04-23 01:24 -21.00615 -40.84844 25689 ft 476 kts 39°
2026-04-23 01:24 -20.98062 -40.82607 25085 ft 472 kts 39°
2026-04-23 01:24 -20.95538 -40.80397 24519 ft 468 kts 39°
2026-04-23 01:24 -20.93037 -40.78207 23948 ft 463 kts 39°
2026-04-23 01:25 -20.90556 -40.76035 23309 ft 456 kts 39°
2026-04-23 01:25 -20.88130 -40.73913 22794 ft 445 kts 39°
2026-04-23 01:25 -20.85759 -40.71841 22259 ft 435 kts 39°
2026-04-23 01:25 -20.83437 -40.69813 21705 ft 427 kts 38°
2026-04-23 01:26 -20.81057 -40.67967 21185 ft 418 kts 31°
2026-04-23 01:26 -20.78536 -40.66501 20661 ft 409 kts 24°
2026-04-23 01:26 -20.75932 -40.65342 20148 ft 401 kts 21°
2026-04-23 01:26 -20.73370 -40.64223 19615 ft 396 kts 21°
2026-04-23 01:27 -20.70842 -40.63111 19114 ft 392 kts 21°
2026-04-23 01:27 -20.68327 -40.62004 18630 ft 389 kts 21°
2026-04-23 01:27 -20.65826 -40.60902 18078 ft 387 kts 21°
2026-04-23 01:27 -20.63352 -40.59813 17579 ft 383 kts 22°
2026-04-23 01:28 -20.60928 -40.58748 17087 ft 379 kts 22°
2026-04-23 01:28 -20.58507 -40.57683 16599 ft 375 kts 22°
2026-04-23 01:28 -20.56102 -40.56626 16099 ft 372 kts 22°
2026-04-23 01:28 -20.53720 -40.55580 15630 ft 369 kts 22°
2026-04-23 01:29 -20.51357 -40.54542 15142 ft 366 kts 22°
2026-04-23 01:29 -20.49008 -40.53511 14621 ft 365 kts 22°
2026-04-23 01:29 -20.46676 -40.52488 14165 ft 361 kts 22°
2026-04-23 01:29 -20.44353 -40.51469 13665 ft 359 kts 22°
2026-04-23 01:30 -20.42055 -40.50460 13190 ft 354 kts 22°
2026-04-23 01:30 -20.39789 -40.49465 12726 ft 350 kts 22°
2026-04-23 01:30 -20.37547 -40.48482 12310 ft 346 kts 22°
2026-04-23 01:30 -20.35288 -40.47543 12139 ft 351 kts 17°
2026-04-23 01:31 -20.32962 -40.46910 11984 ft 337 kts 12°
2026-04-23 01:31 -20.30743 -40.46367 11823 ft 318 kts 13°
2026-04-23 01:31 -20.28648 -40.45846 11671 ft 300 kts 13°
2026-04-23 01:31 -20.26675 -40.45353 11524 ft 283 kts 13°
2026-04-23 01:32 -20.24807 -40.44886 11290 ft 271 kts 13°
2026-04-23 01:32 -20.22981 -40.44430 10948 ft 268 kts 13°
2026-04-23 01:32 -20.21209 -40.43987 10819 ft 255 kts 12°
2026-04-23 01:32 -20.19534 -40.43569 10716 ft 242 kts 12°
2026-04-23 01:33 -20.17903 -40.43162 10340 ft 243 kts 12°
2026-04-23 01:33 -20.16230 -40.42746 9631 ft 252 kts 12°
2026-04-23 01:33 -20.14498 -40.42315 8980 ft 256 kts 12°
2026-04-23 01:33 -20.12768 -40.41884 8458 ft 254 kts 12°
2026-04-23 01:34 -20.11058 -40.41434 7944 ft 252 kts 20°
2026-04-23 01:34 -20.09649 -40.40415 7658 ft 237 kts 50°
2026-04-23 01:34 -20.08927 -40.38943 7421 ft 218 kts 72°
2026-04-23 01:34 -20.08472 -40.37425 6965 ft 214 kts 72°
2026-04-23 01:35 -20.08018 -40.35920 6489 ft 213 kts 72°
2026-04-23 01:35 -20.07570 -40.34439 6153 ft 204 kts 72°
2026-04-23 01:35 -20.07155 -40.33065 6017 ft 187 kts 72°
2026-04-23 01:35 -20.06774 -40.31807 5911 ft 171 kts 73°
2026-04-23 01:36 -20.06433 -40.30683 5821 ft 152 kts 73°
2026-04-23 01:36 -20.06119 -40.29645 5537 ft 146 kts 73°
2026-04-23 01:36 -20.05812 -40.28627 5335 ft 144 kts 73°
2026-04-23 01:36 -20.05501 -40.27594 5153 ft 146 kts 73°
2026-04-23 01:37 -20.05198 -40.26588 4976 ft 144 kts 73°
2026-04-23 01:37 -20.04894 -40.25580 4781 ft 142 kts 73°
2026-04-23 01:37 -20.04593 -40.24585 4515 ft 141 kts 73°
2026-04-23 01:37 -20.04309 -40.23578 4354 ft 143 kts 78°
2026-04-23 01:38 -20.04195 -40.22533 4179 ft 142 kts 90°
2026-04-23 01:38 -20.04279 -40.21500 4011 ft 140 kts 101°
2026-04-23 01:38 -20.04546 -40.20508 3842 ft 139 kts 111°
2026-04-23 01:38 -20.04980 -40.19592 3670 ft 138 kts 122°
2026-04-23 01:39 -20.05566 -40.18780 3498 ft 139 kts 132°
2026-04-23 01:39 -20.06282 -40.18099 3328 ft 138 kts 143°
2026-04-23 01:39 -20.07101 -40.17575 3152 ft 138 kts 153°
2026-04-23 01:39 -20.08002 -40.17219 2986 ft 139 kts 163°
2026-04-23 01:40 -20.08640 -40.17084 2872 ft 139 kts 171°
2026-04-23 01:40 -20.09608 -40.17045 2702 ft 139 kts 181°
2026-04-23 01:40 -20.10565 -40.17202 2535 ft 139 kts 192°
2026-04-23 01:40 -20.11460 -40.17543 2502 ft 140 kts 203°
2026-04-23 01:41 -20.12318 -40.18085 2419 ft 140 kts 214°
2026-04-23 01:41 -20.13035 -40.18771 2172 ft 139 kts 226°
2026-04-23 01:41 -20.13618 -40.19592 2011 ft 139 kts 237°
2026-04-23 01:41 -20.14088 -40.20509 1985 ft 143 kts 240°
2026-04-23 01:42 -20.14561 -40.21406 1861 ft 139 kts 239°
2026-04-23 01:42 -20.15042 -40.22296 1679 ft 139 kts 239°
2026-04-23 01:42 -20.15523 -40.23189 1664 ft 140 kts 239°
2026-04-23 01:42 -20.16004 -40.24090 1663 ft 141 kts 239°
2026-04-23 01:43 -20.16484 -40.24995 1660 ft 140 kts 240°
2026-04-23 01:43 -20.16961 -40.25899 1660 ft 140 kts 239°
2026-04-23 01:43 -20.17451 -40.26796 1637 ft 141 kts 235°
2026-04-23 01:43 -20.18089 -40.27573 1494 ft 135 kts 220°
2026-04-23 01:44 -20.18858 -40.28126 1245 ft 133 kts 205°
2026-04-23 01:44 -20.19731 -40.28440 1073 ft 135 kts 191°
2026-04-23 01:44 -20.20668 -40.28544 934 ft 133 kts 180°
2026-04-23 01:44 -20.21572 -40.28507 746 ft 129 kts 176°
2026-04-23 01:45 -20.22503 -40.28424 554 ft 138 kts 174°
2026-04-23 01:45 -20.23447 -40.28302 354 ft 136 kts 172°
2026-04-23 01:45 -20.24394 -40.28163 137 ft 137 kts 173°
2026-04-23 01:45 -20.25334 -40.28037 25 ft 134 kts 172°
2026-04-23 01:46 -20.26063 -40.27929 22 ft 82 kts 172°
2026-04-23 01:46 -20.26465 -40.27873 18 ft 35 kts 175°
2026-04-23 01:46 -20.26643 -40.27920 20 ft 17 kts 201°
2026-04-23 01:46 -20.26699 -40.27953 22 ft 9 kts 226°
2026-04-23 01:47 -20.26698 -40.28004 21 ft 8 kts 326°
2026-04-23 01:47 -20.26632 -40.28018 22 ft 11 kts 352°
2026-04-23 01:47 -20.26546 -40.28031 22 ft 14 kts 351°
2026-04-23 01:47 -20.26501 -40.28040 21 ft 2 kts 349°
2026-04-23 01:48 -20.26481 -40.28047 22 ft 3 kts 320°
2026-04-23 01:48 -20.26484 -40.28075 21 ft 5 kts 258°
2026-04-23 01:48 -20.26489 -40.28117 21 ft 3 kts 263°
2026-04-23 01:48 -20.26493 -40.28150 21 ft 0 kts 263°
2026-04-23 01:49 -20.26495 -40.28162 20 ft 0 kts 263°
2026-04-23 01:49 -20.26496 -40.28172 23 ft 3 kts 263°
2026-04-23 01:49 -20.26496 -40.28175 22 ft 0 kts 263°